Vertical_Velocity
-5 -4 -14 -6 -7 -2 -2 8 -1 -0 9 0 0 2 -5 -4 -3 -6 -2 -2 -1 5 2 -4 1 -2 -4
3 -1 -6 1 -3 -2 4 26 7 -8 8 -1 -1 -4 3 -4 1 5 -2 -3 -1 -6 2 -6 -0 -3 -2
-1 1 2 -2 -2 12 -1 -4 5 -5 -0 1 -1 -3 -1 -1 3 -2 -1 -3 -5 1 3 7 -3 -2 -1
7 -2 3 3 10 8 2 0 1 3 1 -4 -1 -1 0 -2 -7 -5 -10 -9 -6 -5 3 -7 1 0 -4
2 0 -0 -4 -7 2 5 3 3 1 1 1 -0 -0 6 -2 7 9 9 6 0 2 -1 -3 1 -6 -2
4 4 -0 9 9 -2 -2 2 1 1 4 1 1 -0 -2 2 -1 -8 -3 -0 -1 2 -0 -2 3 -7 -0
2 -4 -1 -2 -1 0 1 0 1 2 -0 0 0 3 3 4 2 -6 -4 -4 -7 -9 6 -1 1 -6 -0
1 -2 1 3 3 -1 -1 2 -1 1 -3 -6 3 2 2 -1 -2 6 -2 4 -11 -6 2 -0 -2 1 1
1 6 3 -1 -0 1 -0 -3 1 0 -0 -4 -1 -10 -7 3 4 9 1 -4 -4 1 3 -1 -0 -1 -3
-0 0 3 -1 -2 -1 1 1 -5 -1 0 3 -6 0 -3 -2 2 0 1 6 -1 -2 -3 -2 2 -2 -6
-2 3 3 -3 0 -3 4 -9 5 -5 1 3 1 -7 2 -5 -9 1 -2 2 -0 -2 -2 -1 3 -3 -4
1 -8 -4 -1 0 -3 -0 0 2 -2 2 6 -8 1 3 1 -2 -12 -6 -2 -2 -2 -1 -1 0 -1 -1
2 5 3 -1 1 6 4 1 -2 -2 -3 -2 -0 3 1 -1 2 -6 -3 -6 -1 -4 4 2 2 -1 -5
0 1 1 3 4 -1 1 -2 -2 2 -1 4 4 0 -3 0 2 -6 -2 0 -3 -0 1 1 2 0 -3
1 0 1 -0 -1 -4 -3 -2 -2 -4 -1 1 3 -2 -1 -1 -4 1 -2 -6 1 -3 -1 -2 -0 -1 -3
-2 -3 -4 -4 -4 -1 -4 0 0 -1 -3 -2 1 -2 -1 -5 4 -3 -4 -4 -1 2 -0 -0 -2 4 -2
-5 -2 -1 -2 -3 -2 -2 -3 -3 -3 -3 -1 0 3 3 0 -7 1 -4 1 0 -2 3 -0 -4 1 -1
Height
1444 1443 1444 1449 1451 1453 1456 1457 1462 1464 1467 1471 1473 1472 1472 1472 1471 1470 1470 1470 1470 1467 1468 1468 1466 1465 1464
1433 1433 1435 1438 1441 1444 1447 1448 1451 1455 1457 1462 1464 1465 1464 1462 1463 1462 1462 1464 1463 1460 1458 1460 1458 1457 1457
1424 1423 1427 1430 1432 1434 1437 1441 1443 1447 1452 1454 1456 1456 1456 1455 1455 1454 1455 1456 1456 1453 1450 1449 1449 1449 1449
1414 1416 1420 1421 1425 1427 1430 1434 1438 1440 1443 1445 1446 1447 1447 1447 1447 1446 1444 1446 1445 1444 1443 1443 1445 1443 1442
1406 1409 1410 1415 1420 1422 1425 1428 1430 1433 1436 1437 1439 1440 1440 1440 1440 1440 1440 1437 1434 1435 1433 1435 1436 1437 1435
1400 1403 1407 1410 1413 1419 1421 1423 1426 1428 1430 1431 1433 1433 1435 1434 1432 1432 1435 1433 1431 1428 1430 1428 1429 1430 1431
1398 1400 1403 1406 1411 1415 1416 1419 1421 1424 1426 1427 1428 1429 1429 1428 1427 1425 1427 1427 1427 1426 1425 1423 1424 1426 1427
1394 1398 1402 1405 1408 1411 1413 1415 1417 1418 1422 1422 1423 1422 1423 1421 1423 1420 1420 1421 1419 1424 1421 1419 1419 1420 1420
1395 1398 1400 1402 1406 1407 1409 1411 1415 1415 1416 1417 1415 1415 1417 1418 1417 1417 1415 1415 1415 1419 1417 1417 1415 1415 1415
1396 1397 1398 1398 1402 1404 1405 1406 1410 1413 1411 1410 1410 1414 1411 1410 1411 1410 1411 1410 1411 1413 1413 1413 1411 1409 1408
1395 1395 1394 1396 1398 1399 1400 1406 1402 1407 1407 1406 1405 1409 1408 1405 1406 1404 1408 1407 1405 1407 1407 1407 1406 1404 1402
1390 1392 1394 1394 1395 1396 1398 1399 1397 1401 1402 1401 1400 1404 1400 1399 1397 1400 1402 1402 1401 1401 1400 1400 1399 1399 1397
1393 1391 1390 1391 1392 1393 1393 1393 1394 1395 1395 1395 1396 1395 1394 1394 1392 1393 1395 1397 1396 1395 1394 1393 1393 1393 1392
1388 1388 1389 1389 1387 1388 1388 1389 1389 1389 1391 1390 1388 1386 1387 1388 1387 1388 1388 1390 1389 1389 1388 1387 1387 1387 1387
1385 1385 1385 1384 1383 1384 1384 1385 1384 1383 1384 1385 1382 1381 1382 1382 1382 1381 1380 1382 1382 1381 1380 1380 1380 1381 1381
1382 1381 1381 1380 1381 1380 1382 1382 1380 1380 1378 1379 1377 1376 1375 1376 1376 1374 1374 1375 1375 1375 1374 1373 1373 1375 1376
1378 1378 1377 1376 1377 1378 1378 1378 1377 1377 1376 1376 1374 1372 1370 1369 1369 1368 1368 1367 1366 1367 1366 1366 1367 1370 1370